TimeCST,TemperatureF,Dew PointF,Humidity,Sea Level PressureIn,VisibilityMPH,Wind Direction,Wind SpeedMPH,Gust SpeedMPH,PrecipitationIn,Events,Conditions,WindDirDegrees,DateUTC
12:13 AM,21.2,8.6,58,30.12,10.0,SE,5.8,-,N/A,,Overcast,140,2013-03-03 06:13:00
12:33 AM,21.2,8.6,58,30.11,10.0,SE,5.8,-,N/A,,Overcast,140,2013-03-03 06:33:00
12:52 AM,21.2,8.6,58,30.11,10.0,SE,5.8,-,N/A,,Overcast,130,2013-03-03 06:52:00
1:32 AM,21.2,8.6,58,30.11,10.0,ESE,4.6,-,N/A,,Overcast,120,2013-03-03 07:32:00
1:52 AM,21.2,8.6,58,30.11,10.0,SE,5.8,-,N/A,,Overcast,130,2013-03-03 07:52:00
2:12 AM,21.2,10.4,63,30.10,10.0,SE,3.5,-,N/A,,Overcast,130,2013-03-03 08:12:00
2:33 AM,21.2,10.4,63,30.10,10.0,SE,4.6,-,N/A,,Overcast,140,2013-03-03 08:33:00
2:53 AM,21.2,10.4,63,30.10,10.0,SE,4.6,-,N/A,,Overcast,140,2013-03-03 08:53:00
3:12 AM,21.2,10.4,63,30.09,10.0,SE,4.6,-,N/A,,Overcast,130,2013-03-03 09:12:00
3:33 AM,21.2,8.6,58,30.09,10.0,SE,3.5,-,N/A,,Overcast,130,2013-03-03 09:33:00
3:52 AM,19.4,8.6,63,30.09,10.0,SE,3.5,-,N/A,,Overcast,130,2013-03-03 09:52:00
4:13 AM,19.4,8.6,63,30.08,10.0,ESE,4.6,-,N/A,,Overcast,120,2013-03-03 10:13:00
4:33 AM,19.4,8.6,63,30.08,10.0,ESE,5.8,-,N/A,,Overcast,120,2013-03-03 10:33:00
4:53 AM,19.4,8.6,63,30.08,10.0,ESE,6.9,-,N/A,,Overcast,110,2013-03-03 10:53:00
5:13 AM,19.4,8.6,63,30.08,10.0,ESE,5.8,-,N/A,,Overcast,110,2013-03-03 11:13:00
5:52 AM,17.6,8.6,68,30.08,10.0,SE,4.6,-,N/A,,Mostly Cloudy,130,2013-03-03 11:52:00
6:13 AM,17.6,8.6,68,30.08,10.0,ESE,5.8,-,N/A,,Scattered Clouds,120,2013-03-03 12:13:00
6:53 AM,15.8,6.8,68,30.08,10.0,ESE,4.6,-,N/A,,Clear,120,2013-03-03 12:53:00
7:12 AM,15.8,6.8,68,30.08,10.0,SE,4.6,-,N/A,,Scattered Clouds,130,2013-03-03 13:12:00
7:33 AM,15.8,6.8,68,30.08,10.0,ESE,5.8,-,N/A,,Scattered Clouds,120,2013-03-03 13:33:00
7:52 AM,15.8,6.8,68,30.08,10.0,ESE,6.9,-,N/A,,Clear,110,2013-03-03 13:52:00
8:12 AM,17.6,6.8,63,30.08,10.0,SE,8.1,-,N/A,,Scattered Clouds,130,2013-03-03 14:12:00
8:32 AM,19.4,6.8,58,30.07,10.0,SSE,6.9,-,N/A,,Scattered Clouds,150,2013-03-03 14:32:00
8:53 AM,19.4,8.6,63,30.07,10.0,SE,10.4,-,N/A,,Mostly Cloudy,140,2013-03-03 14:53:00
9:13 AM,21.2,8.6,58,30.07,10.0,SE,9.2,-,N/A,,Overcast,140,2013-03-03 15:13:00
9:33 AM,21.2,8.6,58,30.06,10.0,SE,13.8,-,N/A,,Overcast,140,2013-03-03 15:33:00
9:53 AM,21.2,8.6,58,30.06,10.0,SE,9.2,-,N/A,,Overcast,140,2013-03-03 15:53:00
10:13 AM,23.0,8.6,54,30.06,10.0,SE,10.4,-,N/A,,Overcast,140,2013-03-03 16:13:00
10:33 AM,24.8,8.6,50,30.06,10.0,SE,11.5,-,N/A,,Overcast,130,2013-03-03 16:33:00
10:52 AM,24.8,6.8,46,30.05,10.0,SE,11.5,-,N/A,,Overcast,140,2013-03-03 16:52:00
11:13 AM,26.6,6.8,43,30.05,10.0,SE,10.4,-,N/A,,Scattered Clouds,130,2013-03-03 17:13:00
11:33 AM,26.6,8.6,47,30.04,10.0,SE,10.4,-,N/A,,Scattered Clouds,140,2013-03-03 17:33:00
11:53 AM,26.6,8.6,47,30.04,10.0,SE,9.2,-,N/A,,Mostly Cloudy,130,2013-03-03 17:53:00
12:13 PM,28.4,8.6,43,30.03,10.0,SE,10.4,-,N/A,,Mostly Cloudy,130,2013-03-03 18:13:00
12:33 PM,28.4,8.6,43,30.02,10.0,ESE,11.5,16.1,N/A,,Mostly Cloudy,120,2013-03-03 18:33:00
12:53 PM,28.4,8.6,43,30.01,10.0,ESE,11.5,-,N/A,,Mostly Cloudy,110,2013-03-03 18:53:00
1:13 PM,28.4,10.4,47,30.01,10.0,SE,11.5,16.1,N/A,,Mostly Cloudy,130,2013-03-03 19:13:00
1:32 PM,28.4,8.6,43,30.00,10.0,ESE,11.5,17.3,N/A,,Overcast,120,2013-03-03 19:32:00
1:52 PM,28.4,8.6,43,29.99,10.0,ESE,12.7,-,N/A,,Overcast,120,2013-03-03 19:52:00
2:33 PM,30.2,8.6,40,29.99,10.0,SE,13.8,-,N/A,,Overcast,130,2013-03-03 20:33:00
2:52 PM,30.2,8.6,40,29.98,10.0,SE,12.7,-,N/A,,Overcast,140,2013-03-03 20:52:00
3:33 PM,28.4,6.8,40,29.99,10.0,SE,10.4,16.1,N/A,,Overcast,130,2013-03-03 21:33:00
4:12 PM,28.4,6.8,40,29.98,10.0,ESE,12.7,-,N/A,,Overcast,110,2013-03-03 22:12:00
4:32 PM,28.4,3.2,34,29.99,10.0,ESE,10.4,-,N/A,,Overcast,120,2013-03-03 22:32:00
4:53 PM,28.4,1.4,31,29.98,10.0,SE,13.8,18.4,N/A,,Overcast,130,2013-03-03 22:53:00
5:12 PM,28.4,1.4,31,29.98,10.0,SE,11.5,-,N/A,,Overcast,130,2013-03-03 23:12:00
5:33 PM,28.4,1.4,31,29.98,10.0,ESE,10.4,-,N/A,,Overcast,120,2013-03-03 23:33:00
5:53 PM,28.4,3.2,34,29.99,10.0,ESE,10.4,-,N/A,,Overcast,120,2013-03-03 23:53:00
6:12 PM,28.4,3.2,34,29.99,10.0,SE,9.2,-,N/A,,Overcast,130,2013-03-04 00:12:00
6:32 PM,28.4,3.2,34,29.99,10.0,SE,9.2,-,N/A,,Overcast,130,2013-03-04 00:32:00
6:52 PM,26.6,3.2,37,29.99,10.0,SE,9.2,-,N/A,,Overcast,130,2013-03-04 00:52:00
7:13 PM,26.6,3.2,37,29.99,10.0,SE,6.9,-,N/A,,Mostly Cloudy,130,2013-03-04 01:13:00
7:33 PM,26.6,3.2,37,29.98,10.0,ESE,9.2,-,N/A,,Mostly Cloudy,120,2013-03-04 01:33:00
7:53 PM,26.6,3.2,37,29.99,10.0,SE,8.1,-,N/A,,Overcast,130,2013-03-04 01:53:00
8:13 PM,26.6,3.2,37,29.99,10.0,ESE,9.2,-,N/A,,Overcast,120,2013-03-04 02:13:00
8:32 PM,26.6,3.2,37,29.99,10.0,ESE,10.4,-,N/A,,Overcast,120,2013-03-04 02:32:00
8:52 PM,26.6,3.2,37,29.99,10.0,ESE,9.2,-,N/A,,Overcast,120,2013-03-04 02:52:00
9:13 PM,26.6,1.4,34,29.97,10.0,ESE,11.5,-,N/A,,Overcast,120,2013-03-04 03:13:00
9:32 PM,26.6,3.2,37,29.98,10.0,ESE,8.1,-,N/A,,Overcast,120,2013-03-04 03:32:00
9:53 PM,26.6,3.2,37,29.98,10.0,SE,9.2,-,N/A,,Overcast,130,2013-03-04 03:53:00
10:12 PM,26.6,8.6,47,29.98,10.0,ESE,11.5,-,N/A,,Overcast,110,2013-03-04 04:12:00
10:33 PM,24.8,10.4,54,29.98,10.0,East,12.7,-,N/A,,Overcast,100,2013-03-04 04:33:00
10:53 PM,24.8,12.2,59,29.98,10.0,ESE,12.7,-,N/A,,Overcast,110,2013-03-04 04:53:00
11:13 PM,24.8,14.0,64,29.98,10.0,ESE,12.7,-,N/A,,Overcast,110,2013-03-04 05:13:00
11:33 PM,24.8,12.2,59,29.98,10.0,ESE,13.8,-,N/A,,Overcast,110,2013-03-04 05:33:00
11:53 PM,24.8,12.2,59,29.98,10.0,ESE,11.5,-,N/A,,Overcast,110,2013-03-04 05:53:00